User: anonymous   Login
Location: *
(33.8649°S, 62.1526°E)
Time: 00:05:24
(UTC+00:00)
Language:

Nadezhda 1 Rocket - Orbit

View from above orbital plane
View from above orbital plane
View from above satellite
View from above satellite

Ground track
Ground track

The orbit data is extracted from the following two-line orbital elements,

1 20104U 89050B   21110.52373109  .00000033  00000-0  17572-4 0  9996
2 20104  82.9594 210.2269 0043032 212.5668 147.2835 13.77321952597786
Epoch (UTC): 20 April 2021 12:34:10
Eccentricity: 0.0043032
inclination: 82.9594°
perigee height: 942 km
apogee height: 1005 km
right ascension of ascending node: 210.2269°
argument of perigee: 212.5668°
revolutions per day: 13.77321952
mean anomaly at epoch: 147.2835°
orbit number at epoch: 59778

The dashed part of the orbit path shows where the satellite is in the earth's shadow,  

DLR